World > North America > United States > Iowa > Mount Vernon  

Mount Vernon, IA Hourly Weather Updates

Feedback E-mail the Weather

Quick Clicks

Mount Vernon, IA Weather Maps

°F °C°F °C
Mount Vernon Weather Map
UTC Time: 6/21/2024, 13:25
Your Time:

Mount Vernon, IA Regional Weather

Expires:202406211400;;407347
ASUS43 KDMX 211306
RWRIA 

WEATHER ROUNDUP FOR IOWA
NATIONAL WEATHER SERVICE DES MOINES IA
800 AM CDT FRI JUN 21 2024

NOTE: "FAIR" INDICATES FEW OR NO CLOUDS BELOW 12,000 FEET WITH NO
SIGNIFICANT WEATHER AND/OR OBSTRUCTIONS TO VISIBILITY.

* - THESE STATIONS ARE NOT NWS STATIONS...THUS NOT UNDER NWS
QUALITY CONTROL.  THEY ALSO DO NOT REPORT WEATHER SUCH 
AS PRECIPITATION OR FOG.  


IAZ007>011-017>019-026>030-037>042-050>054-066-211400-
   NORTHEAST IOWA
  
CITY           SKY/WX    TMP DP  RH WIND       PRES   REMARKS
CEDAR RAPIDS   SUNNY     76  74  93 S9        30.18S TC  24           
CHARLES CITY * CLOUDY    72  72 100 SE7       30.17S FOG     TC  22   
CLINTON *      SUNNY     77  32  19 S8        30.21S TC  25           
DECORAH *      FOG       68  68 100 VRB3      30.18S VSB<1/4 TC  20   
DUBUQUE        CLOUDY    75  72  90 S8        30.21S TC  24           
MONTICELLO *   CLOUDY    75  73  94 SE3       30.18S TC  24           
OELWEIN *      MOSUNNY   72  72 100 S12       30.19S FOG     TC  22   
WATERLOO       PTSUNNY   77  72  84 S8        30.17R TC  25           
$$
 

SKY/WX - Weather  TMP - Temperature  DP - Dew Point  RH - Humidity
WIND - Wind Direction/Speed PRES - Barometric Pressure VSB - Visibility
WCI - Wind Chill Index E13G22 Wind - East Wind 13 mph/Gusts of 22 mph

Trending Headlines

Trending Entertainment Headlines

Mount Vernon Radar Loop

Use the map search tool if you want to place a location marker on the radar map...

Mount Vernon Quick Facts

National Two Day Weather Forecast


E-mail the Mount Vernon Weather Forecast

Voice your opinion or tell us about page issues...